Other Public Products
Issued by NWS Grand Forks, ND

Home | Current Version | Previous Version | Graphics & Text | Print | Product List | Glossary On
Versions: 1 2 3 4 5 6 7 8 9 10 11 12 13 14 15 16 17 18 19 20 21 22 23 24 25 26 27 28 29 30 31 32 33 34 35 36 37 38 39 40 41 42 43 44 45 46 47 48 49 50
725
FPUS83 KFGF 062010
OPUFGF
PRAIRIE TO PINES WEATHER ROUNDUP
NATIONAL WEATHER SERVICE EASTERN NORTH DAKOTA/GRAND FORKS ND
200 PM CST TUE DEC 06 2016

 **SATELLITE DATA USED TO AUGMENT SKY COVER AT AUTOMATED STATIONS**
 *****  WEATHER ACROSS EASTERN NORTH DAKOTA  *****

CITY           SKY/WX    TMP DP  RH WIND       PRES   REMARKS
GRAND FORKS    SNOW      25  22  88 NW30G38   29.42R VSB 1/2 WCI   8
GRAND FORKS AF NOT AVBL
GRAND CITY NWS   N/A     27 N/A N/A NW26        N/A  WCI  11
BUXTON         NOT AVBL
DEVILS LAKE    SNOW      16  13  88 NW33G40   29.58R VSB 1/2 WCI  -5
FARGO          SNOW      21  17  84 W39G49    29.48R VSB 1/4 WCI   1
WAHPETON ARPT  CLOUDY    21  16  79 W35G45    29.58R WCI   2
$$

 *****  WEATHER ACROSS CENTRAL AND WESTERN NORTH DAKOTA  *****

CITY           SKY/WX    TMP DP  RH WIND       PRES   REMARKS
JAMESTOWN      SNOW      14  10  84 NW37G48   29.65R VSB 1/4 WCI  -9
BISMARCK       CLOUDY     8   4  83 NW25G39   29.89R BLWGSNOWWCI -13
MINOT          SNOW       9   5  84 W37G48    29.83R VSB 1/4 WCI -16
MINOT AFB      NOT AVBL
GARRISON         N/A      8   4  83 NW36G47   29.85R WCI -16
WILLISTON      MIX PCPN   6  -2  69 NW25      30.04S WCI -16
DICKINSON      MIX PCPN   3  -3  76 NW32G38   29.92S VSB 1/2 WCI -22
HETTINGER      MIX PCPN   4  -2  76 NW35G40   29.97R WCI -22
$$

 *****  OTHER OBSERVATIONS NORTHEAST NORTH DAKOTA  *****

CITY           SKY/WX    TMP DP  RH WIND       PRES   REMARKS
WALHALLA       NOT AVBL
LANGDON        SNOW      23  21  93 NW35G47   29.49R VSB 1/4 WCI   4
CAVALIER       NOT AVBL
GRAFTON        FOG       25  25 100 NW29      29.43R VSB 1/2 WCI   8
CANDO          NOT AVBL
FORT TOTTEN      N/A     16  15  96 NW16      29.95S WCI   1
ROLLA          NOT AVBL
RUGBY          NOT AVBL
 ***** THE ABOVE OBSERVATIONS ARE NON NWS ARE NOT QUALITY
        CONTROLLED AND MAY MIS-REPORT RAIN FOR SNOW...
$$

 *****  OTHER OBSERVATIONS SOUTHEAST NORTH DAKOTA *****

CITY           SKY/WX    TMP DP  RH WIND       PRES   REMARKS
COOPERSTOWN    SNOW      16  14  93 W39G55    29.54R VSB<1/4 WCI  -7
VALLEY CITY    NOT AVBL
OAKES          NOT AVBL
GWINNER        NOT AVBL
SHEYENNE NWR     N/A     19  12  74 NW31      29.95  WCI   0
BUFFALO        NOT AVBL
WYNDMERE       NOT AVBL
 ***** THE ABOVE OBSERVATIONS ARE NON NWS ARE NOT QUALITY
       CONTROLLED AND MAY MIS-REPORT RAIN FOR SNOW...
$$

  *****  WEATHER ACROSS NORTHERN MINNESOTA  *****

CITY           SKY/WX    TMP DP  RH WIND       PRES   REMARKS
FLAG ISLAND    FLURRIES  25  19  80 SE9       29.37S WCI  15
WARROAD        CLOUDY    23  18  80 E3        29.37R
ROSEAU         LGT SNOW  23  18  80 CALM      29.37R
HALLOCK        LGT SNOW  25  21  86 NW6       29.41R WCI  18
THF RVR FALLS  FLURRIES  23  19  85 NW14      29.36R WCI  11
HALSTAD          N/A     23  21  93 NW38        N/A  WCI   3
FOSSTON        FLURRIES  25  25 100 W16       29.28R WCI  12
BAUDETTE       FLURRIES  22  16  78 SE9       29.35S WCI  12
WASKISH        LGT SNOW  23  19  86 SE9       29.32S WCI  13
CROOKSTON      LGT SNOW  23  21  93 NW17      29.39R WCI   9
$$
  *****  WEATHER ACROSS CENTRAL AND WEST MINNESOTA  *****

CITY           SKY/WX    TMP DP  RH WIND       PRES   REMARKS
BEMIDJI        LGT SNOW  24  20  85 S14G20    29.27S WCI  12
PARK RAPIDS    LGT SNOW  22  15  75 SW22      29.36S VSB 3/4 WCI   6
WADENA         LGT SNOW  19  16  86 SW18G30   29.45S VSB 3/4 WCI   4
DETROIT LAKES  SNOW      21  19  93 W26G36    29.40R VSB 1/2 WCI   4
MOORHEAD       RAIN      19  18  93 W37G45    29.49R VSB 1/2 WCI  -1
FERGUS FALLS   LGT SNOW  19  16  86 W30G44    29.59R VSB 3/4 WCI   0
ELBOW LAKE     SNOW      18  16  91 W35G48    29.59R VSB 1/2 WCI  -3
MORRIS MN      FLURRIES  19  14  79 W29G44    29.64R WCI   1
STAPLES        LGT SNOW  19  16  86 SW21G26   29.47S WCI   3
WHEATON        LGT SNOW  19  18  93 W24G37    29.67R WCI   2
$$
  *****  WEATHER ELSEWHERE ACROSS MINNESOTA  *****

CITY           SKY/WX    TMP DP  RH WIND       PRES   REMARKS
DULUTH         LGT SNOW  20  14  77 SW16G28   29.49S BLWGSNOWWCI   6
INTRNTL FALLS  LGT SNOW  22  15  75 S7        29.39S WCI  13
ELY            FLURRIES  21  16  79 S9G16     29.44S WCI  11
CLOQUET        FLURRIES  21  12  68 S15G25    29.50F WCI   8
BRAINERD       LGT SNOW  22  16  78 SW25G36   29.48S WCI   5
HIBBING        LGT SNOW  19  14  81 S9G18     29.43F WCI   8
ALEXANDRIA     SNOW      19  15  84 W29G38    29.57R VSB 1/2 WCI   0
SAINT CLOUD    LGT SNOW  22  17  81 W24G32    29.61S WCI   5
MINNEAPOLIS    FLURRIES  23  12  62 SW17G26   29.70S WCI   9
$$

  *****  WEATHER ACROSS SOUTH DAKOTA  *****

CITY           SKY/WX    TMP DP  RH WIND       PRES   REMARKS
SIOUX FALLS    FLURRIES  22  11  62 W29G40    29.86S WCI   4
BROOKINGS      FLURRIES  16   9  74 MISG        N/A
WATERTOWN      LGT SNOW  15   9  76 W30G40    29.75R WCI  -5
HURON          MIX PCPN  17   7  64 NW32G45   29.91R WCI  -3
SISSETON         N/A     19  12  74 NW32G48   29.66R WCI  -1
ABERDEEN       CLOUDY    16   5  62 W32G43    29.81R WCI  -5
MITCHELL       CLOUDY    20   9  62 W29G40    29.95S WCI   1
PIERRE         CLOUDY    14   5  67 W30       29.97F WCI  -7
MOBRIDGE       CLOUDY    13   3  64 NW32G41   29.90S WCI  -9
RAPID CITY     SUNNY     19   2  47 N24G30    29.95S WCI   2
$$

  *****  SOME WEATHER IN NEARBY STATES *****

CITY           SKY/WX    TMP DP  RH WIND       PRES   REMARKS
GLASGOW MT     MOSUNNY    5  -5  63 NW24G33   30.13F WCI -17
GREAT FALLS MT CLOUDY     2  -6  69 N5        30.14F WCI  -8
CHEYENNE WY    SUNNY     22  -7  27 S15       29.80F WCI   9
SCOTTSBLUFF NE SUNNY     29   2  31 NW7       29.94F WCI  22
OMAHA NE       SUNNY     35  13  40 NW20G25   29.98F WCI  24
DES MOINES IA  MOSUNNY   34  14  43 W20G26    29.93S WCI  23
DAVENPORT IA   SUNNY     33  24  69 W23       29.87R WCI  21
CHICAGO IL     CLOUDY    35  31  85 W12       29.77R FOG
EAU CLAIRE WI  FLURRIES  22  15  75 SW14G23   29.70S WCI   9
LA CROSSE WI   CLOUDY    26  17  68 SW13      29.80R WCI  15
$$

  *****  SOME NATIONAL WEATHER *****

CITY           SKY/WX    TMP DP  RH WIND       PRES   REMARKS
LA GUARDIA NY  CLOUDY    46  31  55 E8        30.00F
RALEIGH NC     LGT RAIN  48  46  93 NE3       29.68F VSB 1
ATLANTA GA     PTSUNNY   60  58  92 CALM      29.76R
NEW ORLEANS LA PTSUNNY   60  54  80 N5        29.91F
OKLAHOMA CITY  MOSUNNY   45  22  40 N13       30.04F
ALBUQUERQUE NM PTSUNNY   50  15  24 SW10      29.83F
SALT LAKE CITY PTSUNNY   30  16  56 NW10      29.76F WCI  21
LOS ANGELES CA PTSUNNY   62  51  67 W8        29.99F
BOISE ID       CLOUDY    25  20  81 S6        29.93R WCI  18
SEATTLE WA     SUNNY     38  31  76 N12       30.16S
$$

*** WEATHER ACROSS MANITOBA...SASKATCHEWAN AND ONTARIO ***
                ***ONTARIO***

CITY           SKY/WX    TMP DP  RH WIND       PRES   REMARKS
GERALDTON      NOT AVBL
THUNDER BAY    NOT AVBL
SIOUX LOOKOUT  NOT AVBL
TORONTO        NOT AVBL
BIG TROUT LK   NOT AVBL
PICKLE LAKE    NOT AVBL
DRYDEN         NOT AVBL
KENORA         NOT AVBL
$$
                *** MANITOBA***

CITY           SKY/WX    TMP DP  RH WIND       PRES   REMARKS
BRANDON        NOT AVBL
DAUPHIN        NOT AVBL
ISLAND LAKE    NOT AVBL
PILOT MOUND    NOT AVBL
THE PAS        NOT AVBL
THOMPSON       NOT AVBL
WINNIPEG       NOT AVBL
$$
                ***SASKATCHEWAN***

CITY           SKY/WX    TMP DP  RH WIND       PRES   REMARKS
ESTEVAN        NOT AVBL
KINDERSLEY     NOT AVBL
LLOYDMINSTER   NOT AVBL
PRINCE ALBERT  NOT AVBL
REGINA         NOT AVBL
YORKTON        NOT AVBL
N. BATTLEFORD  NOT AVBL
LA RONGE       NOT AVBL
SASKATOON      NOT AVBL                                C1F1C2F2C3F3C4F4C5F5C6F6C7F7C8F8C9F9CaFaCbFbCcFcCdFdCe!



USA.gov is the U.S. government's official web portal to all federal, state and local government web resources and services.